• MPC Preparation (Info)

  • MPEC 2024-G93 : 2024 FC6

    The following Minor Planet Electronic Circular may be linked-to from your own Web pages, but must not otherwise be redistributed electronically.

    A form allowing access to any MPEC is at the bottom of this page.


    Read MPEC 2024-G92 Read MPEC 2024-G94


    M.P.E.C. 2024-G93                                 Issued 2024 April 8, 10:20 UT
    
         The Minor Planet Electronic Circulars contain information on unusual
             minor planets, routine data on comets and natural satellites,
             and occasional editorial announcements.  They are published
        on behalf of Division F of the International Astronomical Union by the
              Minor Planet Center, Smithsonian Astrophysical Observatory,
                              Cambridge, MA 02138, U.S.A.
    			  
                 Prepared using the Tamkin Foundation Computer Network
    
                                  MPC@CFA.HARVARD.EDU
                URL https://www.minorplanetcenter.net/    ISSN 1523-6714
    
                                    2024 FC6                                 
    
    
    Observations:
         K24F06C* C2024 03 31.23981410 01 15.417+27 50 20.91         22.42wXEG093F52
         K24F06C  C2024 03 31.25152210 01 19.462+27 50 27.70         22.12wXEG093F52
         K24F06C  C2024 03 31.26323310 01 23.537+27 50 34.97         22.57wXEG093F52
         K24F06C  C2024 03 31.27493610 01 27.588+27 50 41.97         22.02wXEG093F52
         K24F06C  C2024 03 31.40874610 02 13.669+27 51 54.08         22.15GVEG093F52
         K24F06C  C2024 03 31.40940210 02 13.918+27 51 54.29         22.19GVEG093F52
         K24F06C 7C2024 04 04.86230710 28 04.346+28 13 34.53         21.6 GVEG093Z84
         K24F06C 7C2024 04 04.90548310 28 18.141+28 13 38.03         22.0 GVEG093Z84
         K24F06C 7C2024 04 04.95025510 28 32.433+28 13 39.83         21.6 GVEG093Z84
         K24F06C KC2024 04 07.35402910 41 30.995+28 11 15.97         22.10GVEG093V06
         K24F06C KC2024 04 07.35881410 41 32.460+28 11 14.89         22.12GVEG093V06
         K24F06C KC2024 04 07.36359310 41 33.961+28 11 13.74         21.82GVEG093V06
         K24F06C KC2024 04 07.36837810 41 35.423+28 11 13.16         22.30GVEG093V06
         K24F06C  C2024 04 08.25638210 46 14.178+28 08 14.04         22.3 GVEG093H01
         K24F06C  C2024 04 08.26065010 46 15.456+28 08 13.00         22.3 GVEG093H01
         K24F06C  C2024 04 08.27496410 46 19.701+28 08 08.92         22.2 GVEG093H01
         K24F06C  C2024 04 08.27940910 46 21.021+28 08 07.77         22.4 GVEG093H01
    
    Observer details:
    F52 Pan-STARRS 2, Haleakala.  Observers J. Herman, T. Lowe, P. Minguez, A.
        Schultz, I. Smith.  Measurers K. Chambers, T. de Boer, J. Fairlamb, H.
        Gao, M. Huber, C.-C. Lin, E. Magnier, Y. Ramanjooloo, R. Wainscoat, R.
        Weryk.  1.8-m Ritchey-Chretien + CCD.
    H01 Magdalena Ridge Observatory, Socorro.  Observers W. H. Ryan, E. V. Ryan.
        Measurer W. H. Ryan.  2.4-m f/8.9 Ritchey-Chretien + CCD.
    V06 Catalina Sky Survey-Kuiper.  Observer J. K. Hogan.  Measurers T. Beuden,
        V. F. Carvajal, D. Fay, J. B. Fazekas, D. C. Fuls, A. R. Gibbs, A. D.
        Grauer, H. Groeller, J. K. Hogan, R. A. Kowalski, S. M. Larson, G. J.
        Leonard, D. Rankin, R. L. Seaman, F. C. Shelly, K. W. Wierzchos.  1.55-m
        reflector + 1K CCD.
    Z84 Calar Alto-Schmidt.  Observers F. Ocana, R. Kresken, M. Micheli, L.
        Conversi.  Measurers F. Ocana, M. Micheli.  0.8-m f/3 Schmidt + CCD.
    
    Orbital elements:
    2024 FC6                                                 Earth MOID = 0.1216 AU
    Epoch 2024 Mar. 31.0 TT = JDT 2460400.5                 Veres                   
    M   8.72943              (2000.0)            P               Q                  
    n   0.31535024     Peri.  349.19155     -0.90754943     -0.41802628             
    a   2.1376697      Node   165.89248     +0.39652324     -0.88446059             
    e   0.4809798      Incl.    9.46937     +0.13828720     -0.20732459             
    P   3.13           H   23.54          G   0.15           U   8                  
    Residuals in seconds of arc
    240331 F52  0.3-  0.1+    240404 Z84  0.1-  0.3-    240407 V06  0.1+  0.6+
    240331 F52  0.5-  0.3-    240404 Z84  0.0   0.1+    240408 H01  0.1-  0.2-
    240331 F52  0.2-  0.1-    240404 Z84  0.1+  0.0     240408 H01  0.0   0.1-
    240331 F52  0.0   0.1-    240407 V06  0.0   0.0     240408 H01  0.0   0.2-
    240331 F52  0.0   0.1+    240407 V06  0.1-  0.0     240408 H01  0.0   0.1-
    240331 F52  0.3+  0.1-    240407 V06  0.3+  0.0
    
    Ephemeris:
    2024 FC6                 a,e,i = 2.14, 0.48, 9                   q = 1.1095
    Date    TT    R. A. (2000) Decl.     Delta      r    Elong.  Phase     V
    2024 03 09    07 44 12.6 +16 14 03   0.1834  1.1114   126.3    46.0    21.8
    ...
    2024 03 24    09 15 44.5 +25 48 44   0.1993  1.1338   129.3    42.9    22.0
    ...
    2024 04 01    10 05 47.3 +27 56 50   0.2221  1.1554   130.3    41.3    22.2
    ...
    2024 04 07    10 39 40.3 +28 12 18   0.2453  1.1756   130.6    40.2    22.4
    2024 04 08    10 44 55.1 +28 09 18   0.2496  1.1793   130.7    40.1    22.5
    2024 04 09    10 50 02.8 +28 04 56   0.2541  1.1830   130.7    39.9    22.5
    ...
    2024 04 15    11 18 18.9 +27 13 45   0.2836  1.2073   130.6    39.1    22.8
    ...
    2024 04 23    11 49 45.9 +25 18 02   0.3294  1.2436   130.1    38.2    23.1
    ...
    2024 05 08    12 34 05.5 +20 31 31   0.4342  1.3218   128.0    37.0    23.8
    
    M. P. C. Staff               (C) Copyright 2024 MPC           M.P.E.C. 2024-G93
    


    Read MPEC 2024-G92 Read MPEC 2024-G94


    MPEC number:

    Enter an MPEC number in one of the following forms:

    • 1997-B01 (the full form)
    • J97B01 (the packed version of the full form)
    • B01 (the abbreviated form)